Time,TemperatureF,DewpointF,PressureIn,WindDirection,WindDirectionDegrees,WindSpeedMPH,WindSpeedGustMPH,Humidity,HourlyPrecipIn,Conditions,Clouds,dailyrainin,SoftwareType,DateUTC
2013-07-13 00:02:00,63.0,60.0,30.11,NNW,335,2.0,7.0,90,0.00,,,0.00,,2013-07-13 04:02:00,
2013-07-13 00:12:00,63.0,60.0,30.11,SE,127,1.0,6.0,90,0.00,,,0.00,,2013-07-13 04:12:00,
2013-07-13 00:22:00,63.0,60.0,30.11,NNE,18,5.0,7.0,91,0.00,,,0.00,,2013-07-13 04:22:00,
2013-07-13 00:32:00,62.0,60.0,30.11,NNE,25,4.0,8.0,93,0.00,,,0.00,,2013-07-13 04:32:00,
2013-07-13 00:44:00,62.0,60.0,30.11,NNE,25,4.0,8.0,93,0.00,,,0.00,,2013-07-13 04:44:00,
2013-07-13 00:52:00,62.0,61.0,30.11,North,356,6.0,8.0,95,0.00,,,0.00,,2013-07-13 04:52:00,
2013-07-13 01:01:00,61.0,60.0,30.11,North,10,7.0,9.0,96,0.00,,,0.00,,2013-07-13 05:01:00,
2013-07-13 01:11:00,61.0,60.0,30.11,North,10,7.0,9.0,96,0.00,,,0.00,,2013-07-13 05:11:00,
2013-07-13 01:32:00,61.0,60.0,30.10,North,354,6.0,9.0,96,0.00,,,0.00,,2013-07-13 05:32:00,
2013-07-13 01:42:00,61.0,60.0,30.11,NNW,334,6.0,9.0,97,0.00,,,0.00,,2013-07-13 05:42:00,
2013-07-13 01:52:00,61.0,60.0,30.10,NNE,16,5.0,9.0,97,0.00,,,0.00,,2013-07-13 05:52:00,
2013-07-13 02:02:00,61.0,60.0,30.10,NNW,340,5.0,9.0,97,0.00,,,0.00,,2013-07-13 06:02:00,
2013-07-13 02:11:00,61.0,60.0,30.10,NNW,340,5.0,9.0,97,0.00,,,0.00,,2013-07-13 06:11:00,
2013-07-13 02:32:00,61.0,60.0,30.10,NNW,333,5.0,10.0,97,0.00,,,0.00,,2013-07-13 06:32:00,
2013-07-13 02:43:00,61.0,60.0,30.10,NNW,345,5.0,8.0,96,0.00,,,0.00,,2013-07-13 06:43:00,
2013-07-13 02:52:00,61.0,60.0,30.10,NNW,338,5.0,7.0,96,0.00,,,0.00,,2013-07-13 06:52:00,
2013-07-13 03:02:00,61.0,60.0,30.09,North,8,6.0,8.0,96,0.00,,,0.00,,2013-07-13 07:02:00,
2013-07-13 03:11:00,61.0,60.0,30.09,North,8,6.0,8.0,96,0.00,,,0.00,,2013-07-13 07:11:00,
2013-07-13 03:22:00,61.0,60.0,30.09,North,1,4.0,7.0,96,0.00,,,0.00,,2013-07-13 07:22:00,
2013-07-13 03:33:00,60.0,59.0,30.09,North,352,4.0,8.0,97,0.00,,,0.00,,2013-07-13 07:33:00,
2013-07-13 03:44:00,60.0,59.0,30.09,North,352,4.0,8.0,97,0.00,,,0.00,,2013-07-13 07:44:00,
2013-07-13 03:53:00,60.0,59.0,30.09,NNE,25,7.0,11.0,98,0.00,,,0.00,,2013-07-13 07:53:00,
2013-07-13 04:02:00,60.0,59.0,30.09,NW,323,4.0,8.0,98,0.00,,,0.00,,2013-07-13 08:02:00,
2013-07-13 04:12:00,60.0,59.0,30.09,NW,323,4.0,8.0,98,0.00,,,0.00,,2013-07-13 08:12:00,
2013-07-13 04:22:00,60.0,59.0,30.09,NNW,334,5.0,9.0,98,0.00,,,0.00,,2013-07-13 08:22:00,
2013-07-13 04:33:00,60.0,59.0,30.10,NNW,344,6.0,8.0,98,0.00,,,0.00,,2013-07-13 08:33:00,
2013-07-13 04:43:00,60.0,59.0,30.10,NNW,344,6.0,8.0,98,0.00,,,0.00,,2013-07-13 08:43:00,
2013-07-13 04:52:00,60.0,60.0,30.10,North,351,5.0,7.0,99,0.00,,,0.00,,2013-07-13 08:52:00,
2013-07-13 05:02:00,60.0,60.0,30.10,NNW,343,5.0,7.0,99,0.00,,,0.00,,2013-07-13 09:02:00,
2013-07-13 05:11:00,60.0,60.0,30.10,NNW,343,5.0,7.0,99,0.00,,,0.00,,2013-07-13 09:11:00,
2013-07-13 05:22:00,60.0,59.0,30.10,NNW,338,6.0,8.0,98,0.00,,,0.00,,2013-07-13 09:22:00,
2013-07-13 05:33:00,60.0,59.0,30.11,NNW,338,4.0,7.0,98,0.00,,,0.00,,2013-07-13 09:33:00,
2013-07-13 05:43:00,60.0,59.0,30.11,NNW,338,4.0,7.0,98,0.00,,,0.00,,2013-07-13 09:43:00,
2013-07-13 05:53:00,60.0,59.0,30.11,North,351,5.0,6.0,98,0.00,,,0.00,,2013-07-13 09:53:00,
2013-07-13 06:01:00,60.0,59.0,30.11,North,351,5.0,6.0,98,0.00,,,0.00,,2013-07-13 10:01:00,
2013-07-13 06:11:00,60.0,59.0,30.11,NNW,335,4.0,8.0,98,0.00,,,0.00,,2013-07-13 10:11:00,
2013-07-13 06:22:00,60.0,59.0,30.11,NNW,340,3.0,6.0,98,0.00,,,0.00,,2013-07-13 10:22:00,
2013-07-13 06:32:00,60.0,60.0,30.11,NNW,327,4.0,6.0,99,0.00,,,0.00,,2013-07-13 10:32:00,
2013-07-13 06:43:00,60.0,60.0,30.11,NNW,327,4.0,6.0,99,0.00,,,0.00,,2013-07-13 10:43:00,
2013-07-13 06:52:00,60.0,60.0,30.11,NNW,348,4.0,7.0,99,0.00,,,0.00,,2013-07-13 10:52:00,
2013-07-13 07:02:00,60.0,60.0,30.12,North,356,5.0,9.0,99,0.00,,,0.00,,2013-07-13 11:02:00,
2013-07-13 07:11:00,60.0,60.0,30.12,North,356,5.0,9.0,99,0.00,,,0.00,,2013-07-13 11:11:00,
2013-07-13 07:22:00,60.0,60.0,30.12,NNW,346,5.0,9.0,99,0.00,,,0.00,,2013-07-13 11:22:00,
2013-07-13 07:32:00,60.0,60.0,30.12,NNW,348,5.0,8.0,99,0.00,,,0.00,,2013-07-13 11:32:00,
2013-07-13 07:43:00,60.0,60.0,30.12,NNW,348,5.0,8.0,99,0.00,,,0.00,,2013-07-13 11:43:00,
2013-07-13 07:52:00,61.0,61.0,30.12,NW,326,2.0,7.0,99,0.00,,,0.00,,2013-07-13 11:52:00,
2013-07-13 08:02:00,61.0,61.0,30.12,North,11,3.0,5.0,99,0.00,,,0.00,,2013-07-13 12:02:00,
2013-07-13 08:12:00,61.0,61.0,30.12,North,11,3.0,5.0,99,0.00,,,0.00,,2013-07-13 12:12:00,
2013-07-13 08:22:00,61.0,61.0,30.13,NNW,334,2.0,6.0,99,0.00,,,0.00,,2013-07-13 12:22:00,
2013-07-13 08:32:00,61.0,61.0,30.13,NNW,334,2.0,6.0,99,0.00,,,0.00,,2013-07-13 12:32:00,
2013-07-13 08:43:00,61.0,61.0,30.14,NNW,334,4.0,6.0,99,0.00,,,0.00,,2013-07-13 12:43:00,
2013-07-13 09:01:00,62.0,62.0,30.15,NNW,340,2.0,6.0,99,0.00,,,0.00,,2013-07-13 13:01:00,
2013-07-13 09:12:00,62.0,62.0,30.15,North,356,2.0,6.0,99,0.00,,,0.00,,2013-07-13 13:12:00,
2013-07-13 09:22:00,62.0,62.0,30.15,North,356,2.0,6.0,99,0.00,,,0.00,,2013-07-13 13:22:00,
2013-07-13 09:32:00,62.0,62.0,30.15,North,358,1.0,3.0,99,0.00,,,0.00,,2013-07-13 13:32:00,
2013-07-13 09:43:00,62.0,62.0,30.16,North,6,1.0,4.0,99,0.00,,,0.00,,2013-07-13 13:43:00,
2013-07-13 09:53:00,63.0,63.0,30.16,North,5,1.0,3.0,99,0.00,,,0.00,,2013-07-13 13:53:00,
2013-07-13 10:02:00,63.0,63.0,30.16,North,5,1.0,3.0,99,0.00,,,0.00,,2013-07-13 14:02:00,
2013-07-13 10:11:00,63.0,63.0,30.16,NNW,340,2.0,4.0,99,0.00,,,0.00,,2013-07-13 14:11:00,
2013-07-13 10:22:00,63.0,63.0,30.16,NNE,23,2.0,4.0,99,0.00,,,0.00,,2013-07-13 14:22:00,
2013-07-13 10:32:00,63.0,63.0,30.16,NNW,339,1.0,7.0,99,0.00,,,0.00,,2013-07-13 14:32:00,
2013-07-13 10:43:00,63.0,63.0,30.16,NNW,339,1.0,7.0,99,0.00,,,0.00,,2013-07-13 14:43:00,
2013-07-13 10:53:00,64.0,64.0,30.16,North,7,1.0,4.0,99,0.00,,,0.00,,2013-07-13 14:53:00,
2013-07-13 11:02:00,64.0,64.0,30.16,North,354,1.0,3.0,99,0.00,,,0.00,,2013-07-13 15:02:00,
2013-07-13 11:12:00,64.0,64.0,30.16,North,354,1.0,3.0,99,0.00,,,0.00,,2013-07-13 15:12:00,
2013-07-13 11:22:00,64.0,64.0,30.17,NNE,20,0.0,3.0,99,0.00,,,0.00,,2013-07-13 15:22:00,
2013-07-13 11:33:00,65.0,65.0,30.17,NNE,23,0.0,3.0,99,0.01,,,0.01,,2013-07-13 15:33:00,
2013-07-13 11:43:00,65.0,65.0,30.17,NNE,23,0.0,3.0,99,0.01,,,0.01,,2013-07-13 15:43:00,
2013-07-13 11:53:00,65.0,65.0,30.17,SE,141,0.0,2.0,99,0.01,,,0.01,,2013-07-13 15:53:00,
2013-07-13 12:02:00,66.0,66.0,30.17,SSE,153,1.0,3.0,99,0.01,,,0.01,,2013-07-13 16:02:00,
2013-07-13 12:12:00,66.0,66.0,30.17,SSE,153,1.0,3.0,99,0.01,,,0.01,,2013-07-13 16:12:00,
2013-07-13 12:22:00,66.0,66.0,30.17,SSW,203,1.0,5.0,99,0.01,,,0.01,,2013-07-13 16:22:00,
2013-07-13 12:33:00,66.0,66.0,30.18,South,174,1.0,3.0,99,0.00,,,0.01,,2013-07-13 16:33:00,
2013-07-13 12:43:00,66.0,66.0,30.18,South,174,1.0,3.0,99,0.00,,,0.01,,2013-07-13 16:43:00,
2013-07-13 12:53:00,66.0,66.0,30.18,SSE,165,0.0,3.0,99,0.00,,,0.01,,2013-07-13 16:53:00,
2013-07-13 13:01:00,66.0,66.0,30.18,SE,144,1.0,4.0,99,0.00,,,0.01,,2013-07-13 17:01:00,
2013-07-13 13:12:00,66.0,66.0,30.18,SE,144,1.0,4.0,99,0.00,,,0.01,,2013-07-13 17:12:00,
2013-07-13 13:22:00,66.0,66.0,30.18,SE,141,0.0,3.0,99,0.00,,,0.01,,2013-07-13 17:22:00,
2013-07-13 13:33:00,66.0,66.0,30.18,South,169,0.0,2.0,99,0.00,,,0.01,,2013-07-13 17:33:00,
2013-07-13 13:43:00,66.0,66.0,30.18,South,169,0.0,2.0,99,0.00,,,0.01,,2013-07-13 17:43:00,
2013-07-13 13:52:00,67.0,67.0,30.18,SE,139,0.0,1.0,99,0.00,,,0.01,,2013-07-13 17:52:00,
2013-07-13 14:01:00,67.0,67.0,30.18,South,175,0.0,3.0,99,0.00,,,0.01,,2013-07-13 18:01:00,
2013-07-13 14:11:00,67.0,67.0,30.18,South,175,0.0,3.0,99,0.00,,,0.01,,2013-07-13 18:11:00,
2013-07-13 14:22:00,68.0,67.0,30.18,NE,51,0.0,4.0,98,0.00,,,0.01,,2013-07-13 18:22:00,
2013-07-13 14:32:00,68.0,67.0,30.18,SSE,168,1.0,3.0,98,0.00,,,0.01,,2013-07-13 18:32:00,
2013-07-13 14:44:00,68.0,67.0,30.18,SSE,168,1.0,3.0,98,0.00,,,0.01,,2013-07-13 18:44:00,
2013-07-13 14:53:00,69.0,68.0,30.18,SSE,156,1.0,6.0,95,0.00,,,0.01,,2013-07-13 18:53:00,
2013-07-13 15:02:00,70.0,69.0,30.18,South,174,0.0,4.0,96,0.00,,,0.01,,2013-07-13 19:02:00,
2013-07-13 15:11:00,70.0,69.0,30.18,South,174,0.0,4.0,96,0.00,,,0.01,,2013-07-13 19:11:00,
2013-07-13 15:22:00,71.0,69.0,30.18,SSE,156,0.0,2.0,94,0.00,,,0.01,,2013-07-13 19:22:00,
2013-07-13 15:32:00,72.0,69.0,30.18,SSE,167,0.0,2.0,91,0.00,,,0.01,,2013-07-13 19:32:00,
2013-07-13 15:44:00,72.0,69.0,30.18,SSE,167,0.0,2.0,91,0.00,,,0.01,,2013-07-13 19:44:00,
2013-07-13 15:52:00,71.0,68.0,30.18,SSW,193,2.0,3.0,91,0.00,,,0.01,,2013-07-13 19:52:00,
2013-07-13 16:01:00,70.0,68.0,30.18,SSE,164,1.0,3.0,93,0.00,,,0.01,,2013-07-13 20:01:00,
2013-07-13 16:11:00,70.0,68.0,30.18,SSE,164,1.0,3.0,93,0.00,,,0.01,,2013-07-13 20:11:00,
2013-07-13 16:22:00,73.0,70.0,30.18,SSE,160,0.0,2.0,90,0.00,,,0.01,,2013-07-13 20:22:00,
2013-07-13 16:33:00,74.0,69.0,30.18,SSE,163,1.0,2.0,85,0.00,,,0.01,,2013-07-13 20:33:00,
2013-07-13 16:43:00,74.0,69.0,30.18,SSE,163,1.0,2.0,85,0.00,,,0.01,,2013-07-13 20:43:00,
2013-07-13 16:53:00,74.0,69.0,30.18,South,179,2.0,4.0,85,0.00,,,0.01,,2013-07-13 20:53:00,
2013-07-13 17:02:00,74.0,69.0,30.18,SE,136,1.0,2.0,85,0.00,,,0.01,,2013-07-13 21:02:00,
2013-07-13 17:12:00,74.0,69.0,30.18,SE,136,1.0,2.0,85,0.00,,,0.01,,2013-07-13 21:12:00,
2013-07-13 17:22:00,74.0,68.0,30.18,SE,132,1.0,5.0,83,0.00,,,0.01,,2013-07-13 21:22:00,
2013-07-13 17:32:00,75.0,69.0,30.18,SSE,163,1.0,6.0,83,0.00,,,0.01,,2013-07-13 21:32:00,
2013-07-13 17:43:00,75.0,69.0,30.18,SSE,163,1.0,6.0,83,0.00,,,0.01,,2013-07-13 21:43:00,
2013-07-13 17:53:00,74.0,68.0,30.18,SSE,165,0.0,2.0,83,0.00,,,0.01,,2013-07-13 21:53:00,
2013-07-13 18:01:00,74.0,68.0,30.19,South,174,0.0,4.0,83,0.00,,,0.01,,2013-07-13 22:01:00,
2013-07-13 18:12:00,74.0,68.0,30.19,South,174,0.0,4.0,83,0.00,,,0.01,,2013-07-13 22:12:00,
2013-07-13 18:22:00,74.0,68.0,30.18,SSE,155,1.0,4.0,83,0.00,,,0.01,,2013-07-13 22:22:00,
2013-07-13 18:32:00,74.0,68.0,30.19,South,169,1.0,3.0,82,0.00,,,0.01,,2013-07-13 22:32:00,
2013-07-13 18:43:00,74.0,68.0,30.19,South,169,1.0,3.0,82,0.00,,,0.01,,2013-07-13 22:43:00,
2013-07-13 18:53:00,74.0,68.0,30.18,South,175,2.0,4.0,81,0.00,,,0.01,,2013-07-13 22:53:00,
2013-07-13 19:02:00,75.0,68.0,30.19,South,172,2.0,5.0,80,0.00,,,0.01,,2013-07-13 23:02:00,
2013-07-13 19:11:00,75.0,68.0,30.19,South,172,2.0,5.0,80,0.00,,,0.01,,2013-07-13 23:11:00,
2013-07-13 19:22:00,75.0,69.0,30.19,South,172,2.0,5.0,81,0.00,,,0.01,,2013-07-13 23:22:00,
2013-07-13 19:32:00,73.0,68.0,30.19,SSE,160,2.0,5.0,85,0.00,,,0.01,,2013-07-13 23:32:00,
2013-07-13 19:42:00,73.0,68.0,30.19,SSE,160,2.0,5.0,85,0.00,,,0.01,,2013-07-13 23:42:00,
2013-07-13 19:53:00,73.0,68.0,30.20,SE,143,3.0,7.0,85,0.00,,,0.01,,2013-07-13 23:53:00,
2013-07-13 20:01:00,73.0,68.0,30.20,South,172,3.0,9.0,85,0.00,,,0.01,,2013-07-14 00:01:00,
2013-07-13 20:12:00,73.0,68.0,30.20,South,172,3.0,9.0,85,0.00,,,0.01,,2013-07-14 00:12:00,
2013-07-13 20:22:00,73.0,69.0,30.20,SE,141,3.0,7.0,86,0.00,,,0.01,,2013-07-14 00:22:00,
2013-07-13 20:33:00,73.0,69.0,30.21,SE,144,2.0,7.0,86,0.00,,,0.01,,2013-07-14 00:33:00,
2013-07-13 20:42:00,73.0,69.0,30.21,SE,144,2.0,7.0,86,0.00,,,0.01,,2013-07-14 00:42:00,
2013-07-13 20:53:00,72.0,68.0,30.20,South,173,6.0,10.0,87,0.00,,,0.01,,2013-07-14 00:53:00,
2013-07-13 21:02:00,72.0,68.0,30.20,South,169,2.0,9.0,88,0.00,,,0.01,,2013-07-14 01:02:00,
2013-07-13 21:11:00,72.0,68.0,30.20,South,169,2.0,9.0,88,0.00,,,0.01,,2013-07-14 01:11:00,
2013-07-13 21:22:00,71.0,68.0,30.21,South,174,2.0,6.0,89,0.00,,,0.01,,2013-07-14 01:22:00,
2013-07-13 21:32:00,71.0,68.0,30.21,SSE,162,2.0,5.0,91,0.00,,,0.01,,2013-07-14 01:32:00,
2013-07-13 21:43:00,71.0,68.0,30.21,SSE,162,2.0,5.0,91,0.00,,,0.01,,2013-07-14 01:43:00,
2013-07-13 21:52:00,71.0,68.0,30.21,SSE,165,1.0,4.0,91,0.00,,,0.01,,2013-07-14 01:52:00,
2013-07-13 22:02:00,70.0,68.0,30.22,South,183,1.0,3.0,93,0.00,,,0.01,,2013-07-14 02:02:00,
2013-07-13 22:11:00,70.0,68.0,30.22,South,183,1.0,3.0,93,0.00,,,0.01,,2013-07-14 02:11:00,
2013-07-13 22:22:00,69.0,67.0,30.22,SSE,166,0.0,2.0,94,0.00,,,0.01,,2013-07-14 02:22:00,
2013-07-13 22:32:00,69.0,67.0,30.22,SSE,161,0.0,3.0,94,0.00,,,0.01,,2013-07-14 02:32:00,
2013-07-13 22:43:00,69.0,67.0,30.22,SSE,161,0.0,3.0,94,0.00,,,0.01,,2013-07-14 02:43:00,
2013-07-13 22:53:00,68.0,67.0,30.22,ENE,59,0.0,1.0,96,0.00,,,0.01,,2013-07-14 02:53:00,
2013-07-13 23:02:00,68.0,67.0,30.23,SSE,151,0.0,1.0,97,0.00,,,0.01,,2013-07-14 03:02:00,
2013-07-13 23:11:00,68.0,67.0,30.23,SSE,151,0.0,1.0,97,0.00,,,0.01,,2013-07-14 03:11:00,
2013-07-13 23:22:00,68.0,67.0,30.23,SSW,207,0.0,1.0,98,0.00,,,0.01,,2013-07-14 03:22:00,
2013-07-13 23:32:00,68.0,67.0,30.23,SSW,206,0.0,1.0,98,0.00,,,0.01,,2013-07-14 03:32:00,
2013-07-13 23:43:00,68.0,67.0,30.23,SSW,206,0.0,1.0,98,0.00,,,0.01,,2013-07-14 03:43:00,
2013-07-13 23:53:00,68.0,67.0,30.23,South,174,1.0,2.0,98,0.00,,,0.01,,2013-07-14 03:53:00,